Location: Unspecified
(50.7693°N, 0.0000°E)
Time: 10:00:08
(UTC+00:00)

SR - Pass Details

Date: 25 June 2019
Orbit: 581 x 875 km, 66.7° (Epoch: 15 July)

Event Time Altitude Azimuth Distance (km) Brightness Sun altitude
Rises 12:39:01 0° 312° (NW) 3,040 ? 61.7°
Reaches altitude 10° 12:41:46 10° 296° (WNW) 2,174 ? 61.6°
Maximum altitude 12:45:22 20° 249° (WSW) 1,639 ? 61.4°
Drops below altitude 10° 12:49:10 10° 203° (SSW) 2,306 ? 61.2°
Sets 12:52:11 0° 187° (S) 3,284 ? 61.0°
